sat.trackr.live / text

‹ back to catalog

GPS BIIF-3 (PRN 24)

NORAD 38833 · 2012-053A

PAYLOAD ACTIVE UNKNOWN

§ Identity

Operator
Country
US
Launch date
2012-10-04
Launch site
AFETR
Launch vehicle
Mass (kg)
RCS (m²)
5.47

Purposes: earth_obs, nav

External: N2YO · Heavens-Above · Gunter

§ Orbital elements

Epoch: 2026-09-11T01:42:27.551808Z

Period
718.00 min
Inclination
53.5962°
Eccentricity
0.0185451
Mean motion
2.00556923 rev/d
Perigee alt
19,690.2 km
Apogee alt
20,675.4 km
Semi-major
26,560.9 km
B*
0.0000e+0
RAAN
140.0783°
Arg perigee
67.3330°
Mean anomaly
294.6954°
Rev number
10,116

§ Raw data

GPS BIIF-3  (PRN 24)1 38833U 12053A   26254.07115222  .00000014  00000+0  00000+0 0  99982 38833  53.5962 140.0783 0185451  67.3330 294.6954  2.00556923101166

JSON: /api/v1/satellites/38833 · /tle

For live sub-satellite position, see the globe view (requires WebGL).

§ Visibility from observer

Set your observer location to see the next 7 days of passes ≥ 10°. The values pass through the URL so the page stays shareable.

No JS? Fill the form by hand. The geolocation button needs JavaScript.